Location: Gellin
(53.4498°N, 14.3207°E)
Time: 23:27:06
(UTC+00:00)

Meteor 1-23 Rocket - Pass Details

Date: 03 March 2021
Orbit: 837 x 888 km, 81.3° (Epoch: 12 April)

Event Time Altitude Azimuth Distance (km) Brightness Sun altitude
Rises 19:20:05 0° 345° (NNW) 3,406 7.9 -23.5°
Reaches altitude 10° 19:22:30 10° 344° (NNW) 2,470 7.1 -23.9°
Maximum altitude 19:28:06 77° 260° (W) 873 4.2 -24.6°
Enters shadow 19:30:21 38° 181° (S) 1,282 4.9 -24.9°
